Location: Bottenau
(48.5138°N, 8.0462°E)
Time: 15:51:26
(UTC+00:00)

COSMOS 2487 - Pass Details

Date: 18 April 2021
Orbit: 432 x 435 km, 74.7° (Epoch: 07 May)

Event Time Altitude Azimuth Distance (km) Brightness Sun altitude
Rises 18:57:19 0° 186° (S) 2,403 5.9 -6.0°
Reaches altitude 10° 18:59:25 10° 180° (S) 1,541 4.9 -6.3°
Maximum altitude 19:02:39 44° 106° (ESE) 614 2.6 -6.8°
Drops below altitude 10° 19:05:55 10° 34° (NNE) 1,555 5.1 -7.3°
Sets 19:08:03 0° 27° (NNE) 2,429 6.1 -7.6°
